Probability
48 45 68 58 35 42 48 58 42 48 42 32 23 23 23 16 10 16 55 52 58 61 55 42 48 45 39 42 35 32 29 35 35 42 35 32 35 26 26 19 23 19 23
58 48 68 68 58 52 48 55 52 52 42 29 29 29 23 23 26 32 32 58 61 61 68 52 48 45 45 42 42 35 29 35 39 45 52 45 48 39 32 26 26 26 26
65 65 52 61 52 58 55 61 55 52 52 29 35 29 26 42 48 48 42 55 68 61 65 58 58 52 52 45 35 32 42 39 35 39 42 42 42 39 45 39 23 26 29
61 65 48 39 58 42 52 65 48 45 35 39 45 35 42 61 48 45 42 48 55 45 61 65 65 61 58 61 52 48 48 48 48 45 35 29 29 26 29 29 29 35 32
58 55 45 68 52 42 45 42 45 45 45 48 39 39 35 39 45 32 39 32 42 48 55 65 68 74 65 68 65 61 61 48 48 48 35 29 29 26 26 29 26 29 29
61 61 55 58 45 45 55 58 61 74 65 61 13 13 39 32 32 32 32 29 32 29 26 35 55 61 71 71 71 58 55 58 55 48 45 45 39 45 39 26 19 16 19
52 58 45 61 48 48 52 42 42 32 39 48 39 32 23 13 23 45 39 23 26 26 29 42 45 48 55 65 52 65 61 55 58 48 45 45 39 45 35 23 19 16 19
55 35 65 52 48 58 48 52 55 48 42 35 35 32 19 19 32 3 35 32 26 29 35 39 42 58 55 52 32 48 61 61 55 55 48 48 42 45 39 32 23 19 16
55 55 52 55 52 42 48 65 68 65 55 39 39 45 26 23 19 13 13 16 32 39 39 39 42 45 52 58 52 35 45 45 45 48 48 48 42 39 42 35 26 23 19
52 55 55 55 52 45 58 39 42 52 55 39 39 48 29 26 23 23 23 19 26 45 42 23 23 32 45 55 55 23 26 32 32 39 42 42 39 32 32 32 26 26 26
48 45 58 48 58 58 55 58 68 74 65 61 55 42 32 35 23 32 19 19 16 13 19 35 29 29 42 39 45 26 10 13 19 26 29 32 39 35 35 32 26 29 26
55 48 48 58 58 55 58 65 65 65 65 58 52 45 45 39 35 42 32 32 35 19 10 16 26 32 39 29 26 13 10 0 0 0 10 19 23 23 35 32 29 23 26
52 48 39 52 61 58 58 58 61 58 58 58 61 42 39 35 26 32 35 26 19 16 19 19 19 23 16 19 26 6 10 0 0 0 0 0 6 16 13 16 19 19 19
55 52 52 45 55 52 45 61 55 55 55 55 42 55 39 32 35 32 39 39 29 19 26 19 16 16 19 16 16 3 13 3 0 0 0 0 0 0 0 3 6 6 3
52 52 48 48 42 52 48 48 58 52 52 45 42 45 45 39 29 26 32 35 29 19 16 29 23 23 19 19 10 19 23 6 3 0 0 0 0 0 0 0 0 0 0
48 48 48 39 39 42 32 48 45 45 48 48 48 45 48 42 35 39 39 29 35 29 13 23 19 10 19 3 3 6 16 6 0 0 0 0 0 0 0 0 0 0 0
52 42 42 35 35 29 29 29 26 29 35 39 39 39 35 35 35 32 26 26 29 23 13 16 23 10 13 13 16 10 10 16 13 0 0 0 0 0 0 0 0 0 0
42 39 42 39 23 26 32 29 29 29 29 32 32 32 32 29 32 29 26 26 29 23 13 6 6 10 6 3 6 16 0 0 0 0 0 0 0 0 0 0 0 0 0
35 35 32 32 29 26 23 26 29 26 19 16 16 16 19 23 23 23 23 13 16 3 13 6 6 10 10 6 0 0 0 10 0 0 0 0 0 0 0 0 0 0 0
39 35 29 29 29 19 19 23 23 23 23 19 19 19 16 16 13 13 10 10 10 13 10 3 6 6 10 6 3 3 0 3 3 0 0 0 0 0 0 0 0 0 0
29 32 29 23 23 19 16 16 16 16 23 19 16 16 13 10 3 3 6 13 10 10 6 6 6 6 6 10 6 3 0 0 0 0 0 0 0 0 0 0 0 0 0
29 29 26 26 26 13 3 3 3 10 16 16 13 10 10 10 0 0 0 0 0 10 10 10 6 6 6 10 10 3 3 0 0 0 0 0 0 0 0 3 0 0 0
29 29 26 26 19 3 0 0 0 6 6 13 10 10 10 6 6 10 0 0 0 0 0 3 6 6 10 10 10 6 6 6 3 3 3 0 0 0 0 0 0 0 0
26 26 19 16 13 3 0 0 0 0 6 10 10 10 10 10 6 6 10 10 6 6 3 0 0 6 10 6 10 10 3 3 0 0 0 0 0 0 0 0 0 0 0
23 23 13 13 13 3 0 0 0 0 3 3 3 3 6 3 3 3 3 3 3 10 3 0 0 0 0 0 0 3 0 0 0 0 0 0 0 0 0 0 0 0 0
19 13 10 10 10 3 0 0 0 0 3 3 3 3 3 3 0 0 3 3 3 3 3 0 0 0 0 0 0 0 0 0 0 0 0 0 0 0 0 0 0 0 0
Height
5903 5903 5903 5904 5904 5904 5904 5904 5905 5905 5905 5905 5905 5905 5905 5905 5905 5905 5905 5905 5905 5905 5905 5905 5904 5904 5904 5904 5903 5903 5902 5902 5902 5902 5902 5901 5901 5901 5901 5901 5901 5901 5901
5903 5903 5904 5904 5904 5904 5904 5905 5905 5905 5905 5905 5905 5905 5905 5905 5905 5905 5905 5905 5905 5905 5905 5905 5904 5904 5904 5903 5903 5902 5902 5902 5901 5901 5901 5900 5900 5900 5900 5900 5900 5900 5900
5903 5903 5903 5904 5904 5904 5904 5904 5905 5905 5905 5905 5905 5905 5905 5905 5905 5905 5905 5905 5904 5904 5904 5904 5904 5903 5903 5902 5902 5901 5901 5901 5900 5900 5900 5899 5899 5899 5899 5899 5899 5899 5899
5903 5903 5903 5903 5904 5904 5904 5904 5904 5905 5905 5905 5905 5905 5905 5905 5904 5904 5904 5904 5904 5903 5903 5903 5903 5902 5902 5901 5901 5900 5900 5899 5899 5898 5898 5898 5898 5898 5898 5897 5897 5897 5897
5902 5902 5903 5903 5903 5903 5903 5904 5904 5904 5904 5904 5904 5904 5904 5904 5904 5904 5903 5903 5903 5902 5902 5902 5901 5901 5901 5900 5899 5899 5898 5898 5897 5897 5896 5896 5896 5896 5895 5895 5895 5895 5894
5902 5902 5902 5902 5902 5903 5903 5903 5903 5903 5903 5904 5903 5904 5903 5903 5903 5903 5902 5902 5901 5901 5901 5900 5900 5899 5899 5898 5898 5897 5896 5896 5895 5895 5894 5894 5893 5893 5893 5892 5892 5892 5891
5901 5901 5901 5901 5902 5902 5902 5902 5902 5902 5902 5902 5902 5902 5902 5902 5902 5901 5901 5900 5900 5900 5899 5899 5898 5898 5897 5896 5896 5895 5894 5894 5893 5892 5892 5891 5891 5890 5890 5889 5889 5888 5888
5901 5901 5900 5901 5901 5901 5901 5901 5901 5901 5901 5901 5901 5901 5901 5901 5900 5899 5899 5898 5898 5898 5897 5897 5896 5895 5895 5894 5893 5892 5892 5891 5890 5889 5889 5888 5887 5887 5886 5886 5885 5885 5884
5901 5900 5900 5900 5900 5900 5900 5900 5900 5900 5900 5900 5899 5899 5899 5899 5898 5898 5897 5896 5896 5895 5895 5894 5894 5893 5892 5891 5890 5889 5888 5888 5887 5886 5885 5884 5884 5883 5882 5882 5881 5881 5880
5900 5900 5899 5899 5899 5898 5898 5898 5898 5898 5898 5898 5897 5897 5897 5896 5896 5896 5895 5894 5893 5892 5892 5891 5890 5889 5889 5888 5887 5886 5885 5884 5883 5882 5881 5881 5880 5879 5878 5877 5877 5876 5875
5899 5899 5898 5898 5897 5897 5897 5896 5896 5896 5896 5896 5896 5895 5894 5894 5893 5893 5892 5891 5891 5890 5889 5888 5887 5886 5885 5884 5883 5882 5881 5880 5879 5878 5877 5876 5875 5874 5873 5873 5872 5871 5870
5899 5898 5897 5897 5896 5896 5895 5895 5895 5894 5894 5894 5893 5893 5892 5892 5891 5890 5889 5888 5887 5886 5885 5884 5883 5882 5881 5880 5879 5878 5876 5876 5875 5873 5872 5871 5870 5869 5868 5867 5866 5865 5864
5898 5897 5896 5895 5895 5894 5894 5893 5893 5893 5892 5892 5891 5890 5889 5888 5888 5887 5886 5885 5884 5883 5881 5880 5879 5877 5876 5875 5874 5873 5872 5870 5869 5868 5867 5866 5865 5863 5862 5861 5860 5859 5857
5897 5895 5894 5894 5893 5892 5892 5891 5891 5890 5890 5889 5888 5887 5886 5885 5884 5883 5882 5881 5880 5879 5877 5875 5874 5873 5871 5870 5869 5867 5866 5865 5863 5862 5861 5859 5858 5857 5856 5854 5853 5851 5850
5895 5894 5893 5892 5891 5890 5890 5889 5888 5888 5887 5886 5885 5884 5882 5881 5880 5879 5878 5877 5876 5874 5873 5871 5869 5867 5866 5864 5863 5861 5860 5859 5857 5856 5854 5853 5851 5850 5848 5847 5845 5844 5843
5894 5892 5891 5890 5889 5888 5887 5886 5885 5884 5883 5882 5881 5880 5879 5877 5876 5875 5873 5872 5870 5869 5868 5866 5864 5862 5860 5858 5857 5856 5854 5852 5851 5849 5847 5846 5844 5842 5841 5839 5837 5836 5834
5893 5891 5890 5888 5887 5886 5884 5883 5882 5881 5880 5879 5877 5876 5875 5874 5872 5870 5868 5867 5865 5864 5862 5860 5858 5856 5854 5852 5851 5849 5847 5845 5843 5842 5840 5838 5836 5834 5833 5831 5829 5827 5826
5891 5890 5888 5886 5885 5883 5882 5880 5879 5878 5876 5875 5874 5872 5871 5869 5868 5866 5864 5862 5860 5858 5856 5854 5852 5850 5848 5846 5844 5842 5840 5838 5836 5834 5832 5830 5828 5826 5824 5822 5820 5818 5816
5890 5888 5885 5884 5882 5881 5879 5877 5876 5874 5873 5871 5870 5868 5866 5865 5863 5861 5859 5856 5854 5852 5850 5848 5846 5844 5841 5839 5837 5835 5832 5830 5828 5826 5824 5822 5819 5817 5815 5813 5811 5809 5807
5887 5885 5883 5881 5879 5878 5876 5874 5873 5871 5869 5868 5866 5864 5862 5860 5858 5856 5853 5851 5849 5846 5844 5842 5839 5837 5835 5832 5830 5827 5825 5823 5821 5818 5816 5813 5811 5808 5806 5803 5801 5799 5797
5885 5883 5880 5878 5876 5875 5873 5871 5869 5867 5865 5863 5862 5860 5858 5855 5853 5851 5848 5846 5843 5840 5838 5835 5833 5831 5828 5826 5823 5820 5818 5815 5813 5810 5807 5805 5802 5800 5797 5794 5791 5788 5786
5882 5880 5878 5876 5873 5872 5870 5868 5866 5864 5861 5859 5857 5855 5853 5851 5848 5845 5842 5840 5837 5834 5832 5829 5827 5824 5822 5819 5816 5813 5810 5808 5805 5803 5799 5797 5793 5790 5787 5784 5781 5778 5775
5878 5876 5874 5872 5870 5868 5866 5864 5862 5860 5858 5855 5853 5851 5848 5846 5843 5840 5837 5834 5831 5828 5826 5823 5820 5818 5815 5812 5809 5806 5803 5800 5797 5794 5791 5788 5784 5781 5777 5774 5771 5767 5765
5875 5872 5870 5868 5866 5864 5862 5860 5858 5856 5853 5851 5848 5845 5843 5840 5837 5834 5831 5828 5825 5822 5819 5816 5814 5811 5807 5804 5801 5798 5795 5792 5789 5785 5782 5779 5775 5772 5768 5765 5761 5758 5754
5871 5868 5866 5864 5862 5860 5858 5856 5853 5851 5848 5846 5843 5840 5837 5835 5831 5828 5825 5822 5819 5816 5812 5809 5806 5803 5800 5797 5793 5791 5787 5784 5781 5777 5773 5770 5766 5762 5759 5755 5751 5748 5745
5867 5864 5862 5860 5857 5855 5853 5851 5848 5846 5843 5841 5838 5835 5832 5829 5826 5822 5819 5816 5813 5809 5806 5802 5799 5796 5792 5789 5786 5783 5779 5776 5772 5768 5764 5761 5757 5753 5749 5746 5742 5738 5735
Wind_Speed
4 4 4 3 2 2 2 2 3 2 2 2 2 2 2 1 1 1 1 1 1 0 0 0 1 1 2 2 2 2 3 3 3 3 4 4 4 4 4 3 4 4 5
4 4 4 4 3 2 2 2 3 2 2 1 2 1 1 1 1 1 1 1 1 1 1 1 2 2 3 3 3 3 4 4 4 4 4 4 5 5 5 5 5 6 6
4 4 4 4 3 3 2 3 3 3 2 2 2 2 2 2 2 2 2 2 2 2 2 2 3 3 3 4 4 5 5 5 5 5 5 5 5 6 6 6 7 7 7
3 3 4 3 3 3 3 4 4 3 3 3 3 3 3 3 3 3 3 3 3 4 4 4 4 4 4 5 5 6 6 7 7 7 7 7 7 7 8 8 9 9 9
2 3 3 3 3 3 4 4 4 4 4 4 3 3 3 4 4 4 4 5 5 5 5 5 6 6 6 6 6 7 7 8 8 8 8 8 9 9 10 10 10 11 11
2 3 3 3 4 4 4 4 4 5 5 5 5 4 5 5 5 6 6 6 6 7 7 7 7 7 7 8 8 8 8 9 9 9 10 10 11 11 12 12 12 12 13
2 3 4 4 4 4 5 5 5 5 5 6 6 6 6 6 7 7 7 7 8 8 9 9 9 9 10 10 10 10 11 10 10 11 11 12 12 13 13 13 13 14 14
2 3 4 5 5 5 5 6 6 6 6 7 7 8 8 8 8 8 9 9 9 10 10 10 10 11 11 11 12 12 12 12 12 13 13 13 14 14 14 14 15 15 16
3 3 4 4 5 5 5 6 7 7 7 7 8 8 9 9 10 10 11 11 11 12 12 12 12 12 12 13 13 14 14 13 14 14 14 15 16 16 16 16 17 17 17
3 3 3 4 4 5 6 6 7 7 8 8 8 9 9 10 11 11 12 12 12 13 13 13 13 14 14 14 15 15 15 16 15 16 16 17 17 17 18 18 18 19 20
4 4 5 5 5 5 6 6 7 7 8 8 9 9 10 11 11 12 13 14 14 15 15 14 15 16 16 17 17 17 17 18 18 18 19 19 19 19 20 20 20 21 21
6 6 6 6 6 6 6 7 7 7 8 9 10 11 12 12 13 13 14 15 15 16 16 16 16 17 17 18 18 19 19 19 20 20 21 20 20 21 21 22 22 23 24
8 7 6 6 7 8 8 8 7 8 9 10 11 12 13 14 15 15 16 16 16 17 17 18 18 18 19 19 20 21 21 21 21 21 22 23 23 23 23 24 25 25 26
8 8 7 7 8 8 8 8 9 10 10 11 12 12 13 14 16 16 17 17 17 18 19 19 20 20 20 21 22 22 22 23 23 23 23 23 25 26 26 26 27 27 28
9 9 9 8 8 8 9 10 11 11 12 12 13 14 15 15 16 16 17 18 18 19 20 21 21 21 22 23 23 23 23 24 25 25 25 26 26 27 27 28 29 30 30
10 10 9 9 8 9 11 11 12 12 12 13 14 15 16 16 17 18 19 19 20 20 21 22 23 23 24 23 23 24 25 25 26 26 27 28 28 28 28 28 29 29 30
11 10 10 10 10 10 11 12 13 13 14 14 15 16 16 18 18 19 20 20 21 22 22 22 23 24 25 25 25 26 27 27 27 28 29 30 30 30 31 30 31 32 32
11 11 11 11 11 11 12 13 13 13 14 15 15 16 17 18 19 20 21 21 22 22 22 23 24 25 26 27 27 28 28 28 29 30 31 31 32 32 33 33 33 34 34
12 12 12 12 12 12 12 13 14 14 14 15 16 16 17 18 19 20 21 22 22 23 23 25 26 26 27 28 28 28 28 28 30 31 31 31 32 32 33 33 34 34 35
13 13 13 13 13 13 13 14 15 15 15 16 16 17 17 18 19 20 21 22 23 24 24 25 26 26 27 27 27 27 27 28 29 30 31 31 32 32 33 34 34 35 36
14 14 13 13 13 14 14 14 15 15 16 17 18 18 19 20 21 22 23 23 24 24 24 25 25 26 26 26 26 27 28 29 30 31 32 32 33 33 34 35 35 36 37
16 15 15 15 15 14 14 15 16 16 16 17 18 19 19 20 22 23 23 24 24 24 24 25 25 25 26 26 27 28 29 30 30 30 31 33 34 34 35 35 35 36 37
17 17 17 16 16 16 16 17 17 17 18 18 19 20 21 21 22 23 23 24 24 24 25 26 26 27 28 28 29 29 30 31 31 31 32 32 33 33 34 35 36 36 37
18 17 17 17 17 17 18 18 18 18 19 20 20 21 21 22 23 23 23 24 24 25 26 27 28 28 28 29 29 29 30 31 31 32 32 32 33 33 34 35 35 35 35
19 19 18 18 18 18 19 19 19 20 20 21 21 22 22 23 23 23 24 25 25 25 26 27 28 28 28 28 28 28 29 30 31 31 32 32 33 34 34 34 34 33 33
21 20 20 19 20 20 20 20 21 22 22 23 23 23 24 24 24 24 24 25 25 26 28 28 28 27 27 28 28 29 30 30 30 31 31 32 32 33 33 33 32 32 32
Wind_Direction
161 159 160 155 153 153 157 152 158 158 156 154 150 138 132 115 117 125 126 138 142 179 200 302 281 264 270 281 291 290 285 288 284 276 272 269 272 267 260 257 247 250 255
169 172 178 181 189 191 186 187 191 189 182 177 178 164 163 173 176 201 216 239 257 269 264 286 294 288 285 283 285 284 287 287 284 275 268 264 268 268 266 262 263 265 269
182 184 188 197 206 209 206 205 203 206 219 224 218 217 222 222 222 241 254 254 261 272 272 276 282 282 285 290 288 285 283 285 281 275 270 267 269 269 268 266 266 268 270
196 193 195 203 214 225 218 210 212 218 227 232 232 234 240 242 246 255 267 269 270 271 271 275 278 280 281 291 293 287 284 284 281 279 275 271 270 270 271 270 269 270 271
197 203 208 211 225 230 223 219 221 225 228 233 240 246 252 253 253 260 271 275 274 270 270 272 276 280 281 287 290 289 289 286 290 287 279 273 272 271 272 271 272 273 272
207 218 226 224 229 232 227 227 231 235 238 244 251 258 259 261 263 266 270 272 272 269 271 274 276 279 280 282 285 286 288 288 285 282 278 277 275 272 270 271 273 274 274
217 235 235 234 236 239 239 237 242 244 248 252 257 260 262 263 266 268 270 270 272 270 272 275 277 278 279 281 283 282 283 284 282 281 281 280 279 278 275 273 273 274 274
299 278 258 243 248 252 249 243 245 249 255 256 259 261 265 267 268 273 277 278 277 274 273 277 280 280 281 281 281 282 281 280 279 279 280 279 279 280 280 277 275 274 274
308 291 272 257 259 260 256 255 254 258 262 261 261 265 267 269 272 275 279 281 281 280 278 279 279 278 279 281 280 282 279 278 279 279 279 278 279 279 279 277 277 276 276
315 298 291 284 277 270 267 264 259 261 264 269 271 271 269 270 274 276 281 280 281 283 282 281 280 279 280 282 284 283 282 281 279 278 278 278 277 278 278 278 277 277 277
313 304 298 293 287 281 275 274 265 264 268 271 273 274 273 274 277 281 282 281 282 284 284 285 283 282 281 281 283 283 282 281 279 279 279 279 278 277 278 279 280 280 278
319 305 296 290 289 284 280 278 274 273 275 276 276 277 277 277 277 280 282 283 283 283 285 286 283 283 281 281 283 283 282 280 280 278 278 279 279 279 281 281 280 281 279
323 312 301 291 287 285 281 278 278 279 278 279 280 281 281 281 280 281 281 282 283 285 286 286 285 286 283 281 282 283 282 282 281 281 279 278 279 279 280 280 281 281 281
327 319 308 298 291 286 283 280 279 282 284 288 289 291 289 286 284 283 283 283 284 288 288 287 285 284 284 283 283 282 282 282 282 283 282 282 282 282 280 280 281 281 280
333 323 318 308 299 294 288 285 284 283 285 289 293 295 294 293 293 290 288 287 286 287 288 287 287 287 285 284 284 283 284 283 283 284 284 284 285 285 283 282 281 281 280
332 329 324 314 306 302 298 293 290 290 290 293 294 295 295 295 293 291 289 288 287 287 289 290 289 288 287 286 285 285 285 284 284 284 285 286 286 285 284 281 281 281 282
333 332 327 317 308 302 298 293 290 292 291 292 293 292 292 293 292 294 291 289 290 289 288 289 290 288 288 287 287 286 288 286 284 284 284 285 285 285 284 283 283 282 283
329 325 322 316 310 305 302 300 295 295 295 295 295 294 293 294 294 293 293 292 292 291 289 289 288 287 287 288 288 287 287 287 287 287 286 285 284 285 285 285 285 285 284
323 320 314 311 310 307 306 306 302 299 299 298 297 296 296 296 297 296 295 295 294 292 290 290 290 289 287 288 288 289 289 288 287 288 289 287 287 288 288 286 285 284 284
323 321 317 314 310 309 310 308 305 301 299 298 299 299 299 297 297 297 297 296 296 296 294 293 292 292 292 292 293 292 290 291 291 290 290 291 291 290 290 288 286 285 285
320 320 318 316 311 308 309 310 310 307 303 301 299 299 299 299 298 299 299 299 299 298 297 297 296 296 294 294 293 292 292 292 291 292 294 293 292 291 290 289 287 286 286
315 313 312 313 311 308 307 307 309 309 308 305 303 302 301 302 302 302 302 301 300 299 298 299 298 297 296 295 293 294 294 294 295 295 294 293 292 292 292 291 290 288 287
315 312 311 310 308 306 305 305 305 306 306 305 303 302 302 302 303 303 303 303 302 300 300 300 298 297 297 296 296 296 296 296 296 296 296 296 296 295 295 294 293 292 291
317 312 310 308 306 305 305 304 303 305 306 306 305 305 305 305 305 305 305 304 303 302 301 301 299 298 297 297 298 298 298 298 298 298 298 298 298 298 298 297 295 294 292
315 312 309 307 304 303 303 303 303 303 305 306 307 307 307 306 306 306 305 305 304 304 303 302 301 300 300 300 300 300 300 301 301 300 300 299 300 300 300 299 297 296 295
312 312 311 310 306 301 299 300 302 303 304 305 305 305 305 306 306 305 305 306 305 305 304 303 303 302 301 301 301 301 302 302 303 302 301 301 301 301 301 300 299 298 296